Dobrodošli na spletni strani vremenske postaje Senovo. Vse informacije so informativnega značaja, saj vremenska postaja ni del državne mreže meteoroloških postaj. OBVESTILO: Letni količini padavin navedeni na spletni strani je potrebno prišteti 98,1 mm, zaradi izgube podatkov.


Posebna pozornost v zvezi z vremenskimi dogajanji ni potrebna.    Posebna pozornost v zvezi z vremenskimi dogajanji ni potrebna.

Pogled proti Armezu več informacij Pogled proti Armezu


Lisca več informacij Lisca


Radar strel več informacij blitzortung!


Radar padavin več informacij rain snow radar


Obiščite še:

Template documentation
and downloads

And another site



Weather Underground, zgodovina - Tekstovno

Dnevni povzetek za Avgust 20, 2017 Enote:  Angleško    Metrično   Obe
« Predhodni Dan
Naslednji Dan »
Dnevni Tedenski Mesečni Letni Po meri
  Višja: Nižja: Povprečje:
Temperatura: 76.3 °F 55 °F 64.6 °F
Točka rosišča: 62.1 °F 47.3 °F 54.7 °F
Vlažnost: 95 % 41 % 73 %
Hitrost vetra: 6.2 mph 0 mph 2.2 mph
Sunki vetra: 13.6 mph - -
Veter:- - SSE
Zračni tlak: 30.2 in 30 in -
Padavine: 0.39 in    
Historical Graphs
 
 
Tabelarni podarki za Avgust 20, 2017
Čas Temperatura Točka rosišča Zračni tlak Veter Hitrost vetra Sunki vetra Vlažnost Intenziteta padavin (urna)
00:01 64 °F 56.7 °F 30.1 in WNW 2.5 mph 5.4 mph 77 % 0.1 in
00:06 63.5 °F 57.2 °F 30.1 in SW 2.4 mph 5.8 mph 80 % 0.12 in
00:11 63.1 °F 57.6 °F 30.1 in SSE 2.3 mph 5.8 mph 82 % 0.15 in
00:16 63 °F 57 °F 30.1 in SSE 2.3 mph 6.5 mph 81 % 0.17 in
00:21 62.6 °F 57 °F 30.1 in SSE 3 mph 6.5 mph 82 % 0.19 in
00:26 62.4 °F 57.2 °F 30.1 in SE 2.2 mph 4.9 mph 83 % 0.2 in
00:32 62.1 °F 56.8 °F 30.1 in East 1.7 mph 4.3 mph 83 % 0.2 in
00:37 61.9 °F 56.3 °F 30.1 in ENE 3.5 mph 10.3 mph 82 % 0.21 in
00:42 61.7 °F 55.8 °F 30.1 in ENE 4.4 mph 10.3 mph 81 % 0.21 in
00:47 61.7 °F 56.1 °F 30.1 in East 4.3 mph 10.3 mph 82 % 0.21 in
00:52 61.7 °F 56.1 °F 30.1 in East 4.6 mph 10.3 mph 82 % 0.18 in
00:57 61.5 °F 55.6 °F 30.1 in East 4.6 mph 9.6 mph 81 % 0.14 in
01:02 61.5 °F 55.6 °F 30.1 in ESE 3.9 mph 7.6 mph 81 % 0.11 in
01:07 61.5 °F 55.6 °F 30.1 in ESE 3.1 mph 7.4 mph 81 % 0.09 in
01:12 61.3 °F 55.8 °F 30.1 in ESE 3.8 mph 8.5 mph 82 % 0.07 in
01:17 61.2 °F 55.6 °F 30.1 in ESE 5.1 mph 8.5 mph 82 % 0.04 in
01:22 61.3 °F 55.8 °F 30.1 in East 5.4 mph 13.6 mph 82 % 0.03 in
01:24 61.3 °F 55.6 °F 30.1 in East 5.1 mph 13.6 mph 81 % 0.02 in
01:29 61.2 °F 55.2 °F 30.1 in ENE 4.7 mph 13.6 mph 81 % 0.01 in
01:34 61.2 °F 55.2 °F 30.1 in ENE 4.8 mph 10.3 mph 81 % 0.01 in
01:39 61.2 °F 55.2 °F 30.1 in East 4.9 mph 10.3 mph 81 % 0.01 in
01:44 61 °F 55 °F 30.1 in East 4.4 mph 13.6 mph 81 % 0.01 in
01:49 61 °F 55 °F 30 in East 4.7 mph 13.6 mph 81 % 0.01 in
01:54 61 °F 55 °F 30 in ESE 4.1 mph 13.6 mph 81 % 0.01 in
01:55 61 °F 55 °F 30 in ESE 3.9 mph 8.7 mph 81 % 0.01 in
02:00 61 °F 55 °F 30 in ESE 3.6 mph 7.4 mph 81 % 0.02 in
02:05 60.8 °F 54.9 °F 30.1 in ESE 3.3 mph 7.4 mph 81 % 0.02 in
02:10 60.6 °F 55 °F 30.1 in SE 3 mph 6 mph 82 % 0.04 in
02:15 60.4 °F 55.2 °F 30.1 in SW 3.5 mph 6.3 mph 83 % 0.05 in
02:20 60.1 °F 55.2 °F 30.1 in SW 3.9 mph 6.3 mph 84 % 0.07 in
02:21 60.1 °F 55.2 °F 30.1 in SW 3.8 mph 6.3 mph 84 % 0.08 in
02:26 59.7 °F 54.9 °F 30.1 in WSW 3.4 mph 6.3 mph 84 % 0.09 in
02:31 59.5 °F 55.2 °F 30.1 in West 2.1 mph 6.3 mph 86 % 0.12 in
02:36 59.5 °F 55.2 °F 30.1 in SSW 1.2 mph 4.5 mph 86 % 0.15 in
02:41 59.4 °F 55.6 °F 30.1 in SSW 1.1 mph 2.5 mph 87 % 0.15 in
02:46 59.4 °F 55.8 °F 30.1 in ESE 0.8 mph 3.6 mph 88 % 0.15 in
02:51 59.2 °F 55.6 °F 30.1 in ENE 1.2 mph 3.6 mph 88 % 0.17 in
02:56 59.2 °F 55.9 °F 30.1 in ESE 1.6 mph 3.6 mph 89 % 0.17 in
03:01 59.2 °F 55.9 °F 30.1 in SE 1.9 mph 4 mph 89 % 0.17 in
03:06 59.2 °F 55.9 °F 30.1 in ESE 3.8 mph 7.8 mph 89 % 0.17 in
03:11 59.4 °F 56.1 °F 30.1 in SE 4.6 mph 10.1 mph 89 % 0.17 in
03:16 59.4 °F 56.1 °F 30.1 in South 5 mph 10.5 mph 89 % 0.17 in
03:21 59.4 °F 56.1 °F 30.1 in SSW 5.8 mph 10.5 mph 89 % 0.15 in
03:26 59.2 °F 56.1 °F 30.1 in SSW 5.3 mph 8.1 mph 90 % 0.15 in
03:31 59.2 °F 56.1 °F 30.1 in SW 5.4 mph 8.5 mph 90 % 0.12 in
03:36 59 °F 56.1 °F 30.1 in West 5.1 mph 8.5 mph 90 % 0.1 in
03:37 59 °F 56.1 °F 30.1 in West 5.1 mph 8.5 mph 90 % 0.1 in
03:42 58.8 °F 56.1 °F 30.1 in West 3.3 mph 8.5 mph 91 % 0.1 in
03:47 58.8 °F 56.1 °F 30.1 in SW 2.7 mph 5.6 mph 91 % 0.1 in
03:52 58.8 °F 56.1 °F 30.1 in SSW 3 mph 5.6 mph 91 % 0.09 in
03:57 58.6 °F 55.9 °F 30.1 in SW 2.6 mph 4.9 mph 91 % 0.09 in
04:02 58.6 °F 55.9 °F 30.1 in West 2.5 mph 3.8 mph 91 % 0.07 in
04:07 58.6 °F 55.9 °F 30.1 in WSW 2.5 mph 3.8 mph 91 % 0.06 in
04:12 58.5 °F 56.1 °F 30.1 in SSW 2 mph 3.1 mph 92 % 0.05 in
04:17 58.5 °F 55.8 °F 30.1 in SSE 1.3 mph 3.1 mph 91 % 0.04 in
04:22 58.5 °F 56.1 °F 30.1 in WSW 0.8 mph 3.6 mph 92 % 0.03 in
04:27 58.5 °F 56.1 °F 30.1 in West 1.4 mph 3.6 mph 92 % 0.02 in
04:32 58.5 °F 56.1 °F 30.1 in West 1.1 mph 3.4 mph 92 % 0.01 in
04:37 58.5 °F 56.1 °F 30.2 in NW 0.7 mph 3.6 mph 92 % 0.01 in
04:42 58.5 °F 56.5 °F 30.2 in NNW 0.7 mph 3.6 mph 93 % 0.01 in
04:47 58.5 °F 56.5 °F 30.2 in SE 0.1 mph 2 mph 93 % 0.01 in
04:52 58.5 °F 56.5 °F 30.1 in South 0.3 mph 2 mph 93 % 0.01 in
04:57 58.5 °F 56.5 °F 30.1 in SSW 0.5 mph 2.2 mph 93 % 0.01 in
05:02 58.5 °F 56.5 °F 30.1 in SSW 0.4 mph 2.2 mph 93 % 0.01 in
05:07 58.5 °F 56.5 °F 30.1 in North 0.1 mph   93 % 0.01 in
05:13 58.3 °F 56.3 °F 30.1 in Calm     93 % 0.01 in
05:18 58.5 °F 56.5 °F 30.1 in SSE 1 mph 5.6 mph 93 % 0.01 in
05:19 58.3 °F 56.3 °F 30.1 in SSE 1.2 mph 5.6 mph 93 % 0.01 in
05:23 58.3 °F 56.3 °F 30.1 in SSE 1.5 mph 5.6 mph 93 % 0.01 in
05:28 58.3 °F 56.3 °F 30.1 in NE 1 mph 2.7 mph 93 % 0.01 in
05:33 58.3 °F 56.3 °F 30.1 in NE 0.8 mph 2.5 mph 93 % 0.01 in
05:38 58.3 °F 56.3 °F 30.1 in NNE 0.4 mph 2.2 mph 93 % 0.01 in
05:43 58.3 °F 56.3 °F 30.1 in North 0.1 mph 2.2 mph 93 % 0 in
05:48 58.1 °F 56.1 °F 30.1 in Calm   1.6 mph 93 % 0 in
05:53 58.1 °F 56.1 °F 30.1 in NW 0.4 mph 3.6 mph 93 % 0 in
05:58 58.1 °F 56.5 °F 30.1 in West 1.3 mph 3.6 mph 94 % 0 in
06:03 58.1 °F 56.5 °F 30.1 in WSW 1.5 mph 2.9 mph 94 % 0 in
06:08 58.1 °F 56.5 °F 30.1 in SW 1.3 mph 2.5 mph 94 % 0 in
06:13 58.1 °F 56.5 °F 30.1 in SSW 0.7 mph 2.5 mph 94 % 0 in
06:18 57.9 °F 56.1 °F 30.1 in South 0.4 mph 2.5 mph 94 % 0 in
06:23 57.7 °F 55.9 °F 30.1 in South 0.4 mph 2.5 mph 94 % 0 in
06:28 57.6 °F 55.6 °F 30.1 in South 0.2 mph 1.3 mph 93 % 0 in
06:33 57.6 °F 55.6 °F 30.1 in South 0.1 mph 1.3 mph 93 % 0 in
06:38 57.4 °F 55.4 °F 30.1 in West 0.3 mph 2 mph 93 % 0 in
06:43 57.4 °F 55.4 °F 30.1 in WNW 0.5 mph 2 mph 93 % 0 in
06:48 57.2 °F 55.2 °F 30.1 in WNW 0.2 mph 2 mph 93 % 0 in
06:53 57.2 °F 55.6 °F 30.1 in SSW 0.1 mph 1.6 mph 94 % 0 in
06:58 57.4 °F 55.8 °F 30.1 in SSW 0.1 mph 1.6 mph 94 % 0 in
07:03 57.4 °F 55.8 °F 30.1 in Calm     94 % 0 in
07:08 57.6 °F 55.8 °F 30.1 in Calm     94 % 0 in
07:13 57.6 °F 55.8 °F 30.1 in Calm     94 % 0 in
07:18 57.6 °F 55.8 °F 30.1 in Calm     94 % 0 in
07:23 57.6 °F 55.8 °F 30.1 in Calm     94 % 0 in
07:28 57.6 °F 55.8 °F 30.1 in Calm     94 % 0 in
07:33 57.9 °F 56.1 °F 30.1 in North 0.1 mph 2.5 mph 94 % 0 in
07:38 58.1 °F 56.5 °F 30.1 in NE 0.2 mph 2.5 mph 94 % 0 in
07:43 58.5 °F 57 °F 30.1 in East 0.2 mph 2.2 mph 95 % 0 in
07:49 59 °F 57.4 °F 30.1 in ENE 0.2 mph 2.2 mph 94 % 0 in
07:54 59.4 °F 57.6 °F 30.1 in ESE 0.5 mph 2.5 mph 94 % 0 in
07:59 59.5 °F 57.7 °F 30.1 in ESE 0.8 mph 2.5 mph 94 % 0 in
08:04 59.9 °F 58.3 °F 30.1 in SE 1.2 mph 3.8 mph 94 % 0 in
08:09 60.1 °F 58.3 °F 30.1 in SE 2.4 mph 4 mph 94 % 0 in
08:10 60.3 °F 58.5 °F 30.1 in SE 2.6 mph 4 mph 94 % 0 in
08:15 60.4 °F 58.6 °F 30.1 in SE 1.9 mph 4 mph 94 % 0 in
08:20 60.4 °F 58.5 °F 30.1 in SE 0.8 mph 3.1 mph 93 % 0 in
08:25 60.6 °F 58.6 °F 30.1 in ESE 0.1 mph 2 mph 93 % 0 in
08:30 60.6 °F 58.6 °F 30.1 in ESE 0.2 mph 2 mph 93 % 0 in
08:35 60.6 °F 58.6 °F 30.1 in East 0.4 mph 2 mph 93 % 0 in
08:40 60.6 °F 58.3 °F 30.1 in ENE 0.3 mph 1.6 mph 92 % 0 in
08:45 61 °F 58.6 °F 30.1 in ENE 0.7 mph 2.5 mph 92 % 0 in
08:50 61 °F 58.6 °F 30.1 in ENE 0.5 mph 2.5 mph 92 % 0 in
08:55 61.2 °F 58.8 °F 30.1 in WNW 0.2 mph 1.3 mph 92 % 0 in
09:00 61.3 °F 59 °F 30.1 in SW 0.3 mph 1.3 mph 92 % 0 in
09:05 61.7 °F 59 °F 30.1 in SSE 0.4 mph 2.2 mph 91 % 0 in
09:10 61.7 °F 59 °F 30.1 in SSE 0.4 mph 2.2 mph 91 % 0 in
09:15 61.9 °F 59.2 °F 30.1 in SSE 0.1 mph 1.3 mph 91 % 0 in
09:20 61.9 °F 58.8 °F 30.1 in SSW 0.2 mph 2.5 mph 90 % 0 in
09:25 62.1 °F 59.2 °F 30.1 in WSW 0.5 mph 2.5 mph 90 % 0 in
09:30 62.2 °F 59.4 °F 30.1 in SSW 1 mph 2.2 mph 90 % 0 in
09:35 62.4 °F 59.4 °F 30.1 in SSW 0.9 mph 2.7 mph 90 % 0 in
09:40 62.6 °F 59.5 °F 30.1 in South 1.2 mph 3.4 mph 90 % 0 in
09:45 63 °F 59.7 °F 30.1 in South 1.2 mph 3.4 mph 89 % 0 in
09:50 63.1 °F 59.7 °F 30.1 in South 0.7 mph 2.2 mph 89 % 0 in
09:55 63.5 °F 60.3 °F 30.1 in SSE 1.1 mph 2.9 mph 89 % 0 in
10:00 63.7 °F 60.4 °F 30.1 in SE 0.6 mph 2.9 mph 89 % 0 in
10:05 64 °F 60.6 °F 30.1 in WSW 0.1 mph 1.1 mph 89 % 0 in
10:10 64.4 °F 61.2 °F 30.1 in WSW 0.1 mph 1.1 mph 89 % 0 in
10:15 64.8 °F 61.2 °F 30.1 in SE 0.4 mph 4.3 mph 88 % 0 in
10:20 64.9 °F 61.3 °F 30.1 in SE 1.4 mph 4.3 mph 88 % 0 in
10:25 65.1 °F 61.2 °F 30.1 in SE 1.6 mph 3.6 mph 87 % 0 in
10:30 65.3 °F 61.3 °F 30.1 in SSE 1.2 mph 3.6 mph 87 % 0 in
10:35 65.7 °F 61.3 °F 30.1 in South 1.5 mph 3.4 mph 86 % 0 in
10:40 65.8 °F 61.2 °F 30.1 in South 1.7 mph 3.4 mph 85 % 0 in
10:45 66 °F 61 °F 30.1 in SSE 1.1 mph 3.6 mph 84 % 0 in
10:50 66.4 °F 61.7 °F 30.1 in SSE 1.6 mph 3.6 mph 85 % 0 in
10:55 66.7 °F 61.3 °F 30.1 in South 1.9 mph 3.1 mph 83 % 0 in
11:00 66.7 °F 60.6 °F 30.1 in SSW 1.1 mph 3.8 mph 81 % 0 in
11:05 66.9 °F 61.2 °F 30.1 in SE 1.9 mph 5.4 mph 82 % 0 in
11:10 67.1 °F 61.2 °F 30.1 in SE 2.8 mph 5.4 mph 81 % 0 in
11:15 67.1 °F 60.6 °F 30.1 in South 2.1 mph 3.8 mph 80 % 0 in
11:16 67.1 °F 60.6 °F 30.1 in South 2 mph 3.4 mph 80 % 0 in
11:21 66.9 °F 60.4 °F 30.1 in SW 1.6 mph 4 mph 80 % 0 in
11:26 66.9 °F 60.3 °F 30.1 in SSW 1.5 mph 4 mph 79 % 0 in
11:31 66.9 °F 60.3 °F 30.1 in SW 1.6 mph 3.4 mph 79 % 0 in
11:36 67.1 °F 60.6 °F 30.1 in SW 2.1 mph 3.4 mph 80 % 0 in
11:41 67.8 °F 61.3 °F 30.1 in SSE 2.1 mph 4 mph 80 % 0 in
11:46 68.2 °F 61.3 °F 30.1 in SSE 2.3 mph 4.9 mph 79 % 0 in
11:48 68.4 °F 61.5 °F 30.1 in SSE 2.4 mph 4.9 mph 79 % 0 in
11:53 68.4 °F 61.2 °F 30.1 in SE 2.3 mph 3.6 mph 78 % 0 in
11:58 69.1 °F 61.9 °F 30.1 in SSE 2.8 mph 4 mph 78 % 0 in
12:03 69.3 °F 61.7 °F 30.1 in South 2.8 mph 4 mph 77 % 0 in
12:08 69.4 °F 61.5 °F 30.1 in South 2.7 mph 4 mph 76 % 0 in
12:13 70 °F 62.1 °F 30.1 in SSE 3.1 mph 5.6 mph 76 % 0 in
12:18 70.2 °F 61.5 °F 30.1 in SSE 3.7 mph 5.6 mph 74 % 0 in
12:23 70.7 °F 62.1 °F 30.1 in SSE 3.4 mph 5.4 mph 74 % 0 in
12:28 70.9 °F 61.3 °F 30.1 in SSE 3.2 mph 6.9 mph 72 % 0 in
12:33 70.9 °F 61 °F 30.1 in SSE 3.3 mph 6.9 mph 71 % 0 in
12:38 71.1 °F 60.8 °F 30.1 in South 2.6 mph 4.9 mph 70 % 0 in
12:43 71.6 °F 61 °F 30.1 in South 1.8 mph 4 mph 69 % 0 in
12:48 71.8 °F 60.3 °F 30.2 in South 2.4 mph 6.5 mph 67 % 0 in
12:54 71.8 °F 59.4 °F 30.2 in SSE 2.6 mph 10.3 mph 65 % 0 in
12:59 72.1 °F 58.5 °F 30.2 in ESE 3.5 mph 10.3 mph 62 % 0 in
13:04 72.1 °F 57.6 °F 30.1 in East 4.2 mph 9.8 mph 60 % 0 in
13:09 72.1 °F 56.5 °F 30.1 in East 3.9 mph 8.7 mph 58 % 0 in
13:11 72.1 °F 57 °F 30.1 in East 3.8 mph 8.7 mph 59 % 0 in
13:16 72.5 °F 56.5 °F 30.1 in East 4.2 mph 8.1 mph 57 % 0 in
13:21 73 °F 55.9 °F 30.1 in East 5.2 mph 11 mph 55 % 0 in
13:26 73.2 °F 55 °F 30.1 in East 6.2 mph 11 mph 53 % 0 in
13:31 73.6 °F 54.9 °F 30.1 in East 5 mph 8.7 mph 52 % 0 in
13:36 74.1 °F 55.4 °F 30.1 in East 3.7 mph 8.1 mph 52 % 0 in
13:41 74.5 °F 55.2 °F 30.1 in East 3.8 mph 8.1 mph 51 % 0 in
13:46 74.8 °F 54.3 °F 30.1 in East 4.7 mph 10.1 mph 49 % 0 in
13:51 74.5 °F 54.1 °F 30.1 in East 5.2 mph 10.1 mph 49 % 0 in
13:56 74.5 °F 54.7 °F 30.1 in East 4.9 mph 8.5 mph 50 % 0 in
14:01 74.1 °F 53.2 °F 30.1 in ENE 3.8 mph 8.1 mph 48 % 0 in
14:06 73.8 °F 53.4 °F 30.1 in East 3.4 mph 8.1 mph 49 % 0 in
14:11 73.8 °F 53.4 °F 30.1 in East 3.4 mph 8.1 mph 49 % 0 in
14:12 73.6 °F 53.2 °F 30.1 in East 3.6 mph 7.2 mph 49 % 0 in
14:17 73.8 °F 52.9 °F 30.1 in ESE 3.8 mph 7.2 mph 48 % 0 in
14:22 74.1 °F 53.2 °F 30.1 in East 3.8 mph 8.5 mph 48 % 0 in
14:27 74.5 °F 53.4 °F 30.1 in East 3.8 mph 8.7 mph 48 % 0 in
14:32 74.7 °F 53.1 °F 30.1 in East 4.8 mph 10.5 mph 47 % 0 in
14:37 75.2 °F 53.6 °F 30.1 in ESE 5 mph 10.5 mph 47 % 0 in
14:42 75.2 °F 53.1 °F 30.1 in East 4.5 mph 8.7 mph 46 % 0 in
14:47 74.7 °F 52.5 °F 30.2 in ENE 4.7 mph 9.6 mph 46 % 0 in
14:52 74.8 °F 52.7 °F 30.2 in East 4.7 mph 9.6 mph 46 % 0 in
14:57 74.8 °F 52.7 °F 30.2 in East 5 mph 11.9 mph 46 % 0 in
15:02 75.2 °F 52.3 °F 30.1 in East 5.7 mph 11.9 mph 45 % 0 in
15:07 75.2 °F 52.3 °F 30.1 in ESE 4.8 mph 10.5 mph 45 % 0 in
15:12 75.6 °F 52.7 °F 30.1 in ESE 4.3 mph 10.5 mph 45 % 0 in
15:17 75.9 °F 53.1 °F 30.1 in ESE 4.8 mph 8.7 mph 45 % 0 in
15:22 75.9 °F 53.1 °F 30.1 in ESE 5.2 mph 9.8 mph 45 % 0 in
15:27 75.7 °F 52.3 °F 30.1 in East 4.1 mph 9.8 mph 44 % 0 in
15:32 76.1 °F 52 °F 30.1 in East 3.4 mph 8.5 mph 43 % 0 in
15:37 76.1 °F 52 °F 30.1 in East 3.9 mph 8.5 mph 43 % 0 in
15:42 76.1 °F 52 °F 30.1 in East 4.5 mph 10.3 mph 43 % 0 in
15:47 76.3 °F 52.2 °F 30.1 in East 4.4 mph 10.3 mph 43 % 0 in
15:52 76.1 °F 52 °F 30.1 in ENE 4.5 mph 10.5 mph 43 % 0 in
15:57 75.9 °F 51.8 °F 30.1 in ENE 4.8 mph 10.5 mph 43 % 0 in
16:02 75.6 °F 51.4 °F 30.1 in ENE 4.9 mph 10.3 mph 43 % 0 in
16:07 75.7 °F 51.6 °F 30.1 in ENE 4.6 mph 10.3 mph 43 % 0 in
16:12 75.9 °F 51.8 °F 30.1 in ENE 4.1 mph 9.8 mph 43 % 0 in
16:17 76.1 °F 52 °F 30.1 in East 4.2 mph 8.7 mph 43 % 0 in
16:22 76.1 °F 52 °F 30.1 in East 4.1 mph 8.7 mph 43 % 0 in
16:27 76.1 °F 52 °F 30.1 in ENE 4.1 mph 7.8 mph 43 % 0 in
16:32 76.1 °F 52 °F 30.1 in ENE 3.9 mph 7.6 mph 43 % 0 in
16:37 76.1 °F 52 °F 30.1 in ENE 3.1 mph 7.6 mph 43 % 0 in
16:42 76.1 °F 52 °F 30.1 in NE 2.9 mph 8.1 mph 43 % 0 in
16:47 75.4 °F 50.7 °F 30.1 in North 3.9 mph 8.5 mph 42 % 0 in
16:52 75.7 °F 51.6 °F 30.1 in North 3.6 mph 8.5 mph 43 % 0 in
16:57 75.9 °F 51.8 °F 30.1 in NE 2.1 mph 5.4 mph 43 % 0 in
17:02 75.7 °F 51.1 °F 30.1 in ESE 2.7 mph 9.8 mph 42 % 0 in
17:07 75.7 °F 50.4 °F 30.1 in East 3.8 mph 10.5 mph 41 % 0 in
17:12 75.4 °F 50 °F 30.1 in East 4.3 mph 10.5 mph 41 % 0 in
17:17 75.4 °F 50 °F 30.1 in East 4.3 mph 10.3 mph 41 % 0 in
17:22 74.8 °F 49.6 °F 30.1 in East 3.4 mph 6.5 mph 41 % 0 in
17:27 74.3 °F 49.1 °F 30.1 in East 2.8 mph 5.8 mph 41 % 0 in
17:32 73.8 °F 49.3 °F 30.2 in ENE 2.7 mph 5.8 mph 42 % 0 in
17:37 73.4 °F 48.9 °F 30.2 in ENE 2.7 mph 6 mph 42 % 0 in
17:38 73.4 °F 48.9 °F 30.2 in ENE 2.7 mph 6 mph 42 % 0 in
17:43 73.2 °F 48.7 °F 30.2 in NE 2.4 mph 7.2 mph 42 % 0 in
17:48 72.7 °F 48.4 °F 30.1 in ENE 3 mph 8.5 mph 42 % 0 in
17:53 72.1 °F 47.8 °F 30.1 in ENE 3.9 mph 8.5 mph 42 % 0 in
17:58 71.8 °F 48 °F 30.1 in ENE 4 mph 7.8 mph 43 % 0 in
18:03 71.4 °F 48.4 °F 30.1 in ENE 4.1 mph 10.5 mph 44 % 0 in
18:04 71.2 °F 48.2 °F 30.1 in ENE 4.4 mph 10.5 mph 44 % 0 in
18:09 70.9 °F 47.8 °F 30.1 in ENE 5.6 mph 10.5 mph 44 % 0 in
18:12 70.7 °F 47.7 °F 30.1 in NE 6 mph 10.3 mph 44 % 0 in
18:17 70.3 °F 48 °F 30.1 in ENE 5.3 mph 9.6 mph 45 % 0 in
18:22 70.2 °F 47.8 °F 30.1 in ENE 5.1 mph 9.6 mph 45 % 0 in
18:27 70 °F 48.2 °F 30.1 in NE 4.7 mph 7.8 mph 46 % 0 in
18:32 69.8 °F 48 °F 30.1 in NE 3.8 mph 7.4 mph 46 % 0 in
18:37 69.6 °F 48.6 °F 30.1 in NNE 3.4 mph 6.5 mph 47 % 0 in
18:42 69.4 °F 48.4 °F 30.1 in NNE 3.2 mph 6.5 mph 47 % 0 in
18:47 69.3 °F 48.2 °F 30.1 in NE 2.8 mph 6.5 mph 47 % 0 in
18:52 69.3 °F 48.2 °F 30.1 in NNE 3.1 mph 9.8 mph 47 % 0 in
18:55 69.1 °F 48 °F 30.1 in NNE 3.2 mph 9.8 mph 47 % 0 in
19:00 69.1 °F 48 °F 30.1 in NNE 2.3 mph 6 mph 47 % 0 in
19:05 68.9 °F 47.8 °F 30.1 in NNE 1.9 mph 4.9 mph 47 % 0 in
19:10 68.7 °F 48.2 °F 30.1 in NNE 2.1 mph 5.8 mph 48 % 0 in
19:16 68.7 °F 47.7 °F 30.1 in NNE 1.9 mph 5.8 mph 47 % 0 in
19:21 68.5 °F 47.5 °F 30.1 in North 2.5 mph 5.8 mph 47 % 0 in
19:26 68.5 °F 47.5 °F 30.1 in NNE 2.6 mph 5.8 mph 47 % 0 in
19:31 68.4 °F 47.3 °F 30.1 in NE 1.7 mph 4.7 mph 47 % 0 in
19:36 68.2 °F 47.7 °F 30.1 in NE 0.9 mph 2.2 mph 48 % 0 in
19:41 67.8 °F 48.6 °F 30.1 in NE 0.6 mph 2 mph 50 % 0 in
19:46 67.3 °F 49.6 °F 30.1 in NE 0.5 mph 1.6 mph 53 % 0 in
19:51 66.9 °F 50.2 °F 30.1 in NNE 0.3 mph 2 mph 55 % 0 in
19:56 66.6 °F 50.4 °F 30.1 in West 0.2 mph 2.7 mph 56 % 0 in
20:01 66.2 °F 51.1 °F 30.1 in West 0.2 mph 2.7 mph 58 % 0 in
20:06 66 °F 51.3 °F 30.1 in SW 1.1 mph 2.9 mph 59 % 0 in
20:11 65.5 °F 51.6 °F 30.1 in SW 2 mph 3.1 mph 61 % 0 in
20:16 65.1 °F 51.3 °F 30.1 in SSW 1.5 mph 3.1 mph 61 % 0 in
20:21 64.9 °F 51.6 °F 30.1 in SSW 0.5 mph 2.7 mph 62 % 0 in
20:26 64.6 °F 51.6 °F 30.1 in WSW 0.4 mph 3.1 mph 63 % 0 in
20:31 64.2 °F 51.4 °F 30.1 in West 0.8 mph 3.1 mph 63 % 0 in
20:36 63.9 °F 52 °F 30.2 in WNW 0.5 mph 2.9 mph 65 % 0 in
20:41 63.7 °F 51.6 °F 30.2 in Calm     65 % 0 in
20:46 63.1 °F 52 °F 30.2 in Calm     67 % 0 in
20:51 63 °F 52.2 °F 30.2 in Calm     68 % 0 in
20:56 62.6 °F 52 °F 30.2 in Calm   2 mph 68 % 0 in
21:01 62.1 °F 52.2 °F 30.2 in NW 0.4 mph 2 mph 70 % 0 in
21:06 61.7 °F 51.8 °F 30.2 in NW 0.5 mph 2 mph 70 % 0 in
21:11 61.5 °F 52 °F 30.2 in NW 0.2 mph 2 mph 71 % 0 in
21:16 61.2 °F 52.2 °F 30.2 in Calm   1.3 mph 72 % 0 in
21:21 60.8 °F 51.6 °F 30.2 in NW 0.1 mph 1.6 mph 72 % 0 in
21:26 60.4 °F 51.6 °F 30.2 in NW 0.1 mph 1.6 mph 73 % 0 in
21:31 60.1 °F 51.4 °F 30.2 in Calm   1.3 mph 73 % 0 in
21:36 59.9 °F 51.3 °F 30.2 in South 0.1 mph 1.6 mph 73 % 0 in
21:41 59.7 °F 51.4 °F 30.2 in SE 0.2 mph 2 mph 74 % 0 in
21:46 59.4 °F 51.1 °F 30.2 in NNE 0.3 mph 2.2 mph 74 % 0 in
21:51 59.2 °F 50.9 °F 30.2 in NNW 0.3 mph 2.2 mph 74 % 0 in
21:56 58.8 °F 50.9 °F 30.2 in NW 0.3 mph 1.6 mph 75 % 0 in
22:01 58.6 °F 51.1 °F 30.2 in NE 0.6 mph 3.1 mph 76 % 0 in
22:05 58.5 °F 50.9 °F 30.2 in NNE 1 mph 3.1 mph 76 % 0 in
22:10 58.3 °F 50.7 °F 30.2 in WSW 0.8 mph 2.9 mph 76 % 0 in
22:15 57.9 °F 51.1 °F 30.2 in WSW 0.4 mph 2.9 mph 78 % 0 in
22:20 57.9 °F 51.1 °F 30.2 in WSW 0.6 mph 4 mph 78 % 0 in
22:25 57.7 °F 50.9 °F 30.2 in WSW 0.7 mph 4 mph 78 % 0 in
22:30 57.6 °F 51.1 °F 30.2 in WSW 0.5 mph 3.6 mph 79 % 0 in
22:35 57.4 °F 50.9 °F 30.2 in WNW 0.4 mph 1.6 mph 79 % 0 in
22:40 57.2 °F 51.1 °F 30.2 in WNW 0.3 mph 1.6 mph 80 % 0 in
22:45 57.2 °F 51.1 °F 30.2 in Calm   1.1 mph 80 % 0 in
22:50 57 °F 51.3 °F 30.2 in Calm   1.1 mph 81 % 0 in
22:55 56.8 °F 51.1 °F 30.2 in NW 0.3 mph 2.5 mph 81 % 0 in
23:00 56.8 °F 51.4 °F 30.2 in NW 0.6 mph 2.5 mph 82 % 0 in
23:05 56.7 °F 51.3 °F 30.2 in NNW 0.2 mph 2.2 mph 82 % 0 in
23:10 56.5 °F 51.1 °F 30.2 in Calm     82 % 0 in
23:15 56.3 °F 50.9 °F 30.2 in Calm     82 % 0 in
23:20 56.1 °F 51.1 °F 30.2 in Calm     83 % 0 in
23:25 55.9 °F 50.9 °F 30.2 in NE 0.3 mph 3.4 mph 83 % 0 in
23:26 55.9 °F 50.9 °F 30.2 in NE 0.3 mph 3.4 mph 83 % 0 in
23:31 55.9 °F 50.9 °F 30.2 in West 1.3 mph 3.4 mph 83 % 0 in
23:36 55.8 °F 50.7 °F 30.2 in WSW 1.4 mph 3.4 mph 83 % 0 in
23:41 55.6 °F 50.5 °F 30.2 in West 1 mph 2.5 mph 83 % 0 in
23:46 55.4 °F 50.5 °F 30.2 in WNW 0.6 mph 2.5 mph 84 % 0 in
23:51 55.4 °F 50.5 °F 30.2 in Calm     84 % 0 in
23:56 55 °F 50.4 °F 30.2 in Calm     84 % 0 in
Vremenska postaja Senovo
Podatki zbrani iz Weather Underground - 3 mb

Script developed by  Jim McMurry - jmcmurry@mwt.net Adapted for the template by  Wim van der Kuil - Leuven-Template.eu

Vremenski podatki so objavljeni na:

WeatherCloud

Weather Underground

AWEKAS

HAMweather, WeatherForYou, PWS Weather

MapView

Geostik

Slovenia weather network

Oprema, ki se uporablja:

Vremenski program
Cumulus

Cumulus